Погода в Изобильном

Россия / Ставропольский край     45°22′06″N   41°42′31″E
темп.,
°C
ветер,
м/с
пор.,
м/с
влажн.,
%
обл.,
%
осадки,
мм/ч
давл.,
гПа
погр.,
м
19 апреля, пн
пн1900:00+12св1193100 0.1 101611
03:00+12ююз1191100 0.2 101510
06:00+11юз1195100 0.3 101515
09:00+14ю2492100 2.1 1015251
12:00+16зсз1284100 0.4 1013384
15:00+16зсз3687100 2.2 1014577
18:00+14ююв1195100 1.3 101469
21:00+13ююв2294100 1.3 101547
20 апреля, вт
вт2000:00+13вюв3694100 0.1 1012133
03:00+14юв61486100 0.1 1009519
06:00+12вюв61384100 0.1 1006339
09:00+16юв5775100 0.2 1004265
12:00+20зсз5566100 0.1 1005853
15:00+19з6776100 0.4 1008960
18:00+15зюз4987100 1.8 1009697
21:00+12зюз6147795 2.3 1012734
21 апреля, ср
ср2100:00+9з61486100 0.1 1014685
03:00+9з51289100 0.6 1016691
06:00+8юз2889100 0.3 1017562
09:00+9зюз3485100 0.4 1018499
12:00+13з4670100 0.4 10191303
15:00+13юз3472100 1.3 1019804
18:00+12ююз34807 0.1 1020379
21:00+8ю34875 0.1 102269
22 апреля, чт
чт2200:00+8ю2285100 0.0 102126
03:00+8юз2286100 0.0 102116
06:00+8зюз1191100 0.0 102263
09:00+11з1179100 0.0 1023393
12:00+13всв107299 0.1 1023786
15:00+14ююв447084 0.4 1023952
18:00+13ю2477100 0.4 1023262
21:00+10ю228597 0.5 102416
23 апреля, пт
пт2300:00+8ю11870 0.0 102310
03:00+8ююз118718 0.0 102310
06:00+8ю11875 0.0 102410
09:00+13з11705 0.0 1023541
12:00+16сз225625 0.1 10221461
15:00+18ссз334833 0.3 10212062
18:00+16с2261100 0.0 102141
21:00+12вюв226498 0.0 102113